Location: Gönnheim
(49.4488°N, 8.2383°E)
Time: 23:41:07
(UTC+00:00)

ARIANE 5 R/B - Pass Details

Date: 19 May 2025
Orbit: 614 x 648 km, 98.0° (Epoch: 12 June)

Event Time Altitude Azimuth Distance (km) Brightness Sun altitude
Exits shadow 23:01:17 32° 234° (SW) 1,065 3.5 -20.4°
Maximum altitude 23:02:14 36° 263° (W) 983 3.5 -20.4°
Drops below altitude 10° 23:06:16 10° 331° (NNW) 2,002 6.1 -20.5°
Sets 23:08:37 0° 340° (NNW) 2,919 7.4 -20.5°
